Wind_Speed
13 15 17 17 18 18 18 19 18 16 16 16 18 18 18 19 20 23 24 23 25 24 22 22 23 23 16 5 9 16 9 7 9 10 9 9 8 8 7 7 9 4 5 7 7 9 4
15 14 16 18 18 19 19 18 20 22 18 16 18 19 19 20 21 22 25 25 26 26 22 20 20 19 3 10 11 13 9 9 11 12 11 16 8 8 5 8 7 6 7 6 9 10 4
18 17 18 20 20 20 19 19 21 20 21 20 19 18 19 20 21 24 25 28 28 28 23 19 18 13 8 19 12 7 8 14 11 16 10 22 19 3 7 8 7 14 7 7 11 8 4
20 19 20 21 22 22 22 21 19 20 21 20 21 20 19 20 22 25 28 31 31 31 26 18 15 8 8 21 19 19 19 21 17 18 26 24 10 5 3 7 8 7 7 5 10 9 1
22 21 21 22 24 23 24 23 22 20 20 20 20 21 20 20 20 23 29 35 32 23 19 13 8 6 10 15 10 26 23 17 20 22 21 14 5 3 7 4 6 5 8 8 8 5 5
22 22 23 24 25 26 25 24 24 24 23 20 18 19 19 20 19 21 27 37 25 20 11 6 8 4 9 5 11 11 21 17 10 6 4 5 2 4 4 2 6 8 4 4 1 5 3
24 24 26 27 28 28 25 25 25 24 24 22 20 20 18 19 19 19 24 16 3 1 6 9 10 7 11 16 18 10 17 15 11 6 9 5 4 8 10 13 17 13 12 6 4 6 7
27 28 28 27 27 28 27 27 27 26 25 24 21 20 19 18 17 15 16 5 7 4 10 13 19 23 32 25 12 14 20 8 11 12 7 7 15 14 15 18 17 16 10 7 6 1 4
31 32 28 28 28 27 26 27 26 26 25 24 22 19 18 16 14 17 20 20 20 25 5 14 19 15 18 16 21 21 11 15 9 9 12 13 12 18 19 18 16 15 7 5 2 5 10
32 32 31 29 28 28 28 27 26 25 25 24 21 19 16 12 10 15 10 10 16 15 5 7 9 8 12 13 9 31 19 14 6 16 15 12 19 20 17 18 12 9 6 9 5 1 4
32 32 33 32 30 28 28 27 26 25 23 23 22 19 14 10 15 8 7 21 20 5 5 7 6 11 10 18 9 14 36 8 19 16 9 14 7 12 17 12 6 11 7 1 2 3 2
34 34 33 31 30 30 29 27 26 25 23 22 21 20 14 11 16 22 23 27 11 3 10 7 6 7 8 19 9 3 13 14 6 15 17 15 14 15 13 9 8 9 4 3 3 1 4
36 35 33 32 31 30 30 28 27 25 23 21 21 20 18 15 10 9 14 8 2 7 5 6 4 9 7 8 18 14 7 12 12 15 17 16 22 14 12 7 7 6 2 1 3 2 6
37 37 35 33 33 33 31 29 28 26 24 21 20 20 21 18 20 18 10 2 9 10 17 2 1 1 10 8 10 14 16 12 16 13 5 13 14 19 12 14 8 10 7 5 4 2 4
38 38 36 34 34 34 32 31 29 27 24 22 19 20 19 22 21 12 3 9 10 6 13 15 17 14 12 8 6 13 16 16 12 19 15 11 18 6 16 9 12 10 6 8 4 3 2
40 39 38 37 36 35 33 31 31 28 25 23 21 14 18 27 20 12 4 18 19 23 14 11 9 6 13 9 7 9 8 8 17 20 19 6 7 18 15 10 10 9 3 2 0 4 4
41 40 40 39 37 36 34 33 31 30 28 26 20 4 15 29 20 3 12 16 22 15 13 15 15 13 14 11 9 8 11 11 9 14 20 19 15 12 11 13 15 4 7 3 4 5 4
43 42 42 40 40 38 37 36 34 33 31 30 9 6 24 35 7 5 20 12 10 12 18 17 8 12 14 17 15 11 5 6 14 10 17 18 4 13 22 11 11 9 13 10 5 5 4
44 44 43 41 40 40 38 38 38 36 36 27 5 4 27 30 12 17 18 29 24 21 13 5 14 9 8 17 9 4 2 5 10 13 10 11 15 14 12 12 9 19 13 10 5 5 7
46 44 43 43 42 40 40 40 38 39 41 38 6 6 5 13 14 25 23 26 25 9 23 21 17 15 19 17 14 10 3 3 11 14 23 14 14 15 20 5 5 6 7 8 9 5 5
45 44 43 43 42 40 40 42 42 43 43 40 6 6 7 13 23 20 18 7 26 18 16 17 15 23 21 9 15 10 3 6 6 12 15 6 10 22 18 14 12 14 21 19 17 14 10
45 43 41 39 37 35 35 29 36 37 39 31 6 5 6 7 18 22 19 28 28 20 17 20 19 17 14 19 21 13 4 3 1 9 11 11 12 6 7 19 20 15 16 21 16 6 14
43 41 37 36 35 35 36 38 39 40 38 15 10 9 7 13 15 17 28 34 30 17 16 23 17 18 19 23 8 5 4 9 9 4 6 11 10 7 15 3 6 12 18 14 9 15 11
39 39 39 38 39 39 40 42 43 44 43 27 9 6 7 6 18 23 28 27 26 19 20 15 23 16 25 5 4 6 6 5 6 7 11 4 16 4 5 4 8 16 5 13 10 13 12
39 40 41 41 42 42 43 44 45 47 45 37 13 5 6 10 17 21 24 20 25 16 20 20 22 9 7 9 8 4 2 2 7 7 12 6 4 5 3 11 5 12 7 12 10 12 7
41 42 42 42 45 46 47 47 48 49 47 40 20 23 1 5 12 26 21 23 14 16 17 17 18 10 4 4 4 7 4 3 4 1 5 10 2 2 5 8 16 3 15 8 1 7 4
39 37 40 41 41 43 45 48 50 51 49 41 19 29 5 1 6 18 15 19 19 12 11 14 8 7 3 3 3 6 6 6 4 3 5 3 3 3 11 4 7 6 9 1 5 5 5
34 35 38 40 41 41 42 45 49 54 52 46 27 36 14 1 4 7 9 8 14 14 12 5 3 7 2 4 4 4 4 5 3 6 7 8 8 5 4 4 6 14 6 12 6 6 9
27 25 25 23 31 37 38 40 43 51 53 52 10 34 28 3 3 11 19 16 12 13 11 6 7 5 6 4 4 4 3 6 15 9 3 4 6 7 8 5 8 13 7 11 15 11 11
Wind_Direction
314 319 313 307 300 300 298 296 301 299 295 302 306 311 315 318 321 320 321 325 322 315 309 313 319 328 342 297 254 278 255 239 216 199 220 243 245 243 253 286 317 226 250 287 316 320 127
305 302 297 297 301 300 296 300 297 296 300 298 297 303 308 315 318 318 318 318 318 315 310 311 317 328 279 262 256 262 248 233 213 199 244 243 250 253 285 289 320 297 294 319 302 283 125
299 299 298 296 296 297 301 304 299 301 301 297 302 298 305 309 314 316 317 315 312 311 309 303 311 318 249 243 254 186 258 260 238 218 235 255 261 2 333 317 328 312 322 305 276 242 100
295 294 291 290 290 293 293 296 302 301 302 305 300 299 301 300 306 311 315 310 304 304 304 297 301 294 252 265 276 266 258 258 242 241 244 264 324 360 316 289 311 298 306 274 285 122 224
294 291 290 288 289 289 292 293 293 295 296 299 301 302 297 300 302 308 311 310 299 300 301 293 280 199 263 301 238 246 241 230 224 240 248 273 294 241 297 280 303 260 249 259 263 196 138
291 290 290 289 287 286 288 288 289 289 290 294 305 303 303 298 301 309 313 310 295 293 287 250 251 271 264 249 231 229 221 241 214 203 237 247 286 224 302 201 243 259 232 274 297 101 134
291 291 289 288 287 285 284 282 281 282 285 287 290 299 306 303 303 307 317 335 17 30 206 216 197 239 301 302 300 183 205 223 231 191 202 220 197 232 239 231 242 260 280 278 219 196 166
292 293 290 288 285 284 282 278 276 275 277 281 286 288 300 311 302 296 303 267 251 28 292 247 247 245 261 272 283 291 186 192 209 221 180 230 232 229 241 253 257 262 270 269 317 201 191
293 295 292 289 285 282 278 276 275 273 272 273 276 281 288 306 297 283 263 248 291 313 279 279 241 238 231 226 242 257 183 203 205 218 204 212 232 220 236 250 257 271 258 286 252 190 267
294 294 293 290 285 280 281 279 276 274 272 269 268 270 279 295 285 283 261 308 293 296 285 257 232 233 213 203 254 229 238 190 221 220 224 233 235 245 248 241 243 267 259 247 251 243 224
295 294 295 293 288 284 282 279 275 272 269 267 259 261 264 260 296 301 324 333 327 156 309 244 217 182 178 179 139 205 221 232 208 219 194 226 239 240 244 251 227 257 249 323 301 315 316
298 296 295 294 287 286 284 278 274 268 264 261 258 250 247 249 264 262 296 317 320 116 241 267 159 164 135 195 231 3 182 210 212 219 243 253 231 244 240 242 227 255 204 240 294 329 335
293 295 292 293 288 283 282 279 273 268 261 254 251 242 230 228 249 294 324 320 165 204 210 247 206 156 186 181 213 224 209 198 205 208 228 244 254 251 247 240 226 258 202 247 337 329 229
290 294 291 287 286 281 279 275 270 265 258 251 243 237 230 225 239 260 307 224 229 234 235 311 13 167 187 186 207 214 225 224 219 217 180 226 248 237 232 212 201 242 184 156 220 214 267
289 291 286 285 285 278 275 271 266 261 254 245 235 231 220 225 227 242 229 207 227 217 203 254 282 299 273 196 194 195 220 235 243 216 209 201 237 245 232 233 193 239 210 187 175 39 64
286 286 285 283 283 276 273 269 264 257 248 237 222 212 211 217 213 213 202 227 235 221 264 292 272 255 284 303 230 187 203 209 233 215 213 237 241 238 253 218 237 186 189 237 346 156 225
283 282 281 276 280 274 269 266 261 253 244 232 203 212 185 205 186 205 221 227 243 253 240 256 276 278 289 294 307 318 301 245 213 213 206 216 239 275 241 226 211 210 219 195 162 150 197
281 279 278 271 276 268 266 258 256 249 239 221 196 211 177 172 185 209 225 205 234 249 213 252 265 268 279 291 299 311 295 234 339 334 206 210 189 232 253 277 221 198 203 200 146 200 191
279 277 275 267 269 264 259 252 251 240 230 206 204 163 180 172 201 217 230 234 247 254 265 279 236 238 261 274 289 195 301 335 15 -0 321 219 222 240 273 254 257 215 215 200 190 135 201
279 275 271 270 267 261 258 254 242 238 229 206 169 167 188 201 219 210 210 229 235 256 232 251 269 276 271 273 270 278 275 306 342 339 327 313 208 220 228 248 182 254 245 243 215 168 207
277 274 272 269 263 260 252 244 244 232 223 206 169 211 191 198 210 213 207 209 231 229 232 199 244 245 243 255 265 247 189 341 323 339 332 308 258 230 226 216 239 208 224 248 245 220 208
277 273 270 267 262 254 247 226 223 222 218 211 169 182 194 214 202 205 217 221 231 218 214 216 226 237 246 247 244 271 172 132 18 349 335 324 264 224 240 212 216 232 224 223 231 237 223
277 273 267 261 254 250 242 235 232 232 219 211 185 218 187 205 187 191 214 227 228 219 252 229 223 223 240 245 289 309 195 154 150 162 299 308 331 211 243 242 225 260 237 253 230 249 246
273 269 265 257 250 246 240 235 232 231 220 225 179 170 195 199 196 205 212 221 235 220 230 263 220 223 234 102 105 67 73 78 156 172 167 278 321 275 184 132 216 256 198 249 241 245 256
273 268 263 256 248 242 235 231 228 228 220 217 174 188 186 207 201 205 209 211 226 226 225 239 254 253 172 177 215 254 348 39 227 197 170 131 310 306 168 210 249 279 240 204 209 248 225
273 270 264 258 250 241 234 229 222 222 222 213 191 184 221 193 202 202 199 204 209 207 239 251 252 262 263 211 154 216 220 247 230 287 167 155 228 33 312 206 216 147 245 255 49 261 253
281 273 270 261 254 242 234 227 221 213 215 209 206 184 178 173 222 211 200 196 197 195 213 229 231 265 175 180 207 189 219 202 264 310 147 148 104 353 278 261 289 221 181 209 220 231 255
279 278 274 264 246 236 227 222 217 211 206 200 202 182 185 156 279 229 223 195 192 200 204 198 202 230 241 152 142 229 137 207 265 209 179 166 172 169 278 195 255 20 313 211 220 262 247
282 285 269 257 230 224 222 214 211 206 200 192 178 177 187 187 281 234 210 226 224 206 199 196 210 218 206 153 169 157 224 180 214 244 173 171 189 172 158 268 283 324 310 305 354 326 288
Height
836 833 834 835 836 835 833 833 830 828 828 827 827 825 822 819 818 816 814 809 808 806 804 802 799 796 791 790 771 762 761 761 762 763 764 764 764 764 770 762 755 752 748 745 743 740 740
835 833 834 834 833 832 831 828 826 826 824 823 824 822 820 817 816 813 811 807 805 803 801 799 798 796 794 792 760 760 759 759 760 761 761 760 758 754 757 757 760 747 746 745 743 743 739
833 831 830 831 830 829 827 825 824 822 821 820 820 819 816 815 813 811 807 804 801 799 798 797 797 795 791 773 756 759 759 758 758 758 759 754 752 755 757 763 747 748 757 748 744 741 751
830 828 827 827 827 825 823 822 821 819 818 817 816 814 813 813 811 809 805 800 796 794 794 793 794 794 779 755 753 750 751 753 755 755 756 753 752 752 758 755 755 762 758 771 745 743 750
827 825 823 823 822 821 820 818 818 817 816 814 814 812 811 810 808 806 802 796 790 789 789 790 791 790 771 752 748 743 747 748 751 752 752 752 752 758 761 773 779 766 781 769 755 735 751
822 821 819 818 817 816 815 815 814 813 813 812 810 809 808 808 805 804 800 791 781 784 785 787 787 791 761 746 740 738 741 745 747 748 752 755 760 771 772 779 794 776 768 756 754 743 750
817 816 815 813 812 811 811 810 810 809 809 809 808 808 806 805 804 802 799 790 783 785 782 773 767 761 744 740 739 736 738 742 744 749 764 757 776 781 772 764 755 753 756 755 745 734 748
812 810 809 807 806 805 805 805 805 805 805 805 805 805 805 803 802 801 801 798 786 792 779 761 758 752 747 744 748 736 735 746 747 756 755 765 768 757 750 748 750 747 754 754 739 731 738
805 803 802 801 800 800 800 800 799 800 801 802 803 803 803 802 800 798 796 792 784 784 781 751 744 738 734 737 738 737 732 737 745 753 752 762 747 741 746 747 748 743 749 748 750 739 734
799 797 796 795 794 793 794 794 795 795 796 797 799 801 802 802 802 794 793 788 784 785 787 747 726 714 718 725 732 724 724 732 741 748 746 749 735 740 741 741 739 753 730 734 739 748 771
792 791 789 788 787 787 787 788 788 789 790 793 795 797 800 801 795 791 788 784 778 780 812 721 706 695 699 714 713 719 715 727 737 740 742 741 737 739 740 733 727 741 728 733 736 751 750
784 783 782 780 779 779 780 780 782 784 786 788 790 793 797 799 795 786 787 784 779 791 776 719 696 700 706 714 711 706 715 719 722 734 731 732 719 724 727 720 721 721 729 729 735 749 783
776 774 773 772 772 772 773 773 775 777 780 782 785 788 793 795 791 791 789 786 789 785 723 716 706 700 706 713 717 716 723 727 738 749 744 734 728 717 714 728 720 727 741 772 781 788 792
767 765 764 764 764 764 766 766 768 771 773 777 780 784 787 790 790 792 791 791 783 732 727 693 701 703 709 707 712 714 721 730 723 726 738 747 749 721 708 718 729 730 738 776 782 799 773
757 756 755 755 755 756 757 759 761 764 767 771 776 780 783 785 787 791 791 783 753 736 717 717 712 723 716 703 707 713 717 723 720 717 736 739 732 705 703 705 711 727 741 727 754 759 775
748 747 745 745 745 746 748 750 753 756 760 765 770 774 776 779 785 789 784 769 741 726 722 724 730 717 719 709 711 714 716 702 714 706 709 719 734 710 703 700 703 713 713 745 750 780 783
737 736 735 734 735 736 738 741 745 748 753 758 763 766 765 774 782 786 764 747 730 731 731 736 729 727 720 717 717 714 722 699 696 701 700 712 726 723 705 707 714 718 725 727 732 753 776
724 723 722 723 723 725 728 731 735 739 745 751 752 755 759 766 774 769 747 737 734 726 728 727 725 726 727 720 719 715 717 709 700 704 703 701 718 734 718 696 689 699 712 719 756 753 747
711 709 709 709 711 713 716 719 724 729 735 741 740 748 753 754 752 748 739 733 735 736 731 729 725 723 721 724 732 716 713 705 709 720 712 697 707 731 722 703 692 697 702 703 713 731 745
696 695 695 695 696 699 702 706 711 717 723 731 733 739 742 742 729 725 726 723 734 730 732 728 724 727 724 724 716 716 710 707 709 712 713 706 691 703 715 709 702 706 701 698 707 742 737
682 680 680 680 682 684 687 692 697 703 711 719 717 717 709 713 714 721 728 719 723 729 720 720 724 722 718 729 720 717 711 712 704 710 714 711 704 690 688 692 692 694 698 699 703 705 719
666 665 665 666 668 671 674 678 684 690 698 702 704 704 704 697 711 722 720 711 706 705 714 713 716 711 720 723 714 716 711 714 717 716 725 709 710 695 697 685 686 695 692 690 691 694 695
651 651 652 654 656 660 664 669 674 678 688 681 685 692 691 689 700 714 699 683 693 713 709 706 704 715 715 703 713 709 704 705 711 720 739 735 726 700 702 692 692 712 688 688 684 682 684
637 638 638 640 643 646 651 656 661 666 673 678 675 683 687 682 687 685 686 696 698 703 707 702 701 705 691 707 712 714 716 715 715 717 728 741 743 712 713 705 719 677 668 676 682 677 674
624 623 623 625 628 632 636 641 647 653 661 669 669 674 671 677 676 680 688 688 693 700 701 701 691 692 694 702 711 716 731 721 717 714 722 725 746 725 709 698 694 682 670 673 678 679 664
609 607 607 607 610 614 619 626 633 641 649 660 663 668 670 671 665 660 673 679 688 695 700 695 690 693 695 703 715 722 724 711 708 710 711 722 741 742 722 701 704 678 668 656 654 685 656
593 591 590 590 592 596 602 609 618 627 639 650 655 661 669 671 666 664 662 668 672 682 690 689 691 694 693 714 719 720 716 706 712 710 726 740 736 737 733 719 694 659 654 651 685 687 651
579 576 573 571 573 579 586 595 604 615 627 640 647 654 662 667 661 658 657 659 665 673 680 680 694 690 698 711 713 718 720 711 701 701 711 718 722 723 715 711 704 673 657 670 665 653 651
566 562 558 556 559 566 573 582 592 603 616 633 640 648 660 667 664 657 656 657 657 659 668 673 673 676 684 691 697 702 713 707 696 703 687 705 695 701 696 698 677 674 678 667 663 659 653